Location: Moscow
(38.8570°N, 84.2291°W)
Time: 20:17:10
(UTC+00:00)

PCSat - Pass Details

Date: 21 March 2026
Orbit: 781 x 790 km, 67.1° (Epoch: 18 April)

Event Time Altitude Azimuth Distance (km) Brightness Sun altitude
Rises 10:52:05 0° 338° (NNW) 3,292 12.6 -9.9°
Reaches altitude 10° 10:54:41 10° 347° (NNW) 2,359 12.0 -9.4°
Maximum altitude 10:59:43 38° 55° (NE) 1,193 11.2 -8.4°
Drops below altitude 10° 11:04:42 10° 123° (ESE) 2,345 12.9 -7.4°
Sets 11:07:16 0° 131° (SE) 3,269 13.5 -6.9°
